CAPE
10 10 14 16 18 23 12 152 126 37 11 12 9 12 11 10 12 17 6 7 5 7 38 37 14 33 0 0 0 0 0 45 2 1 1 44 91 53 44 33 30 48 0 30 255 95 9
8 7 11 13 19 19 20 27 75 121 30 15 12 15 11 7 10 14 5 8 10 16 25 25 19 12 1 0 0 0 0 8 13 9 0 32 43 80 43 71 15 32 90 30 231 73 2
8 12 11 9 11 11 13 15 43 28 77 20 11 15 11 10 15 10 9 3 6 26 9 25 26 3 2 0 0 0 0 15 3 32 0 5 47 127 58 54 6 14 74 19 173 3 12
8 9 17 17 13 9 22 24 24 27 127 26 9 18 19 9 8 15 5 3 1 8 4 19 8 0 1 0 0 0 0 20 59 5 0 46 53 45 93 31 68 73 26 2 91 13 2
29 32 19 23 26 17 11 30 30 17 21 21 11 18 18 5 11 15 3 6 1 2 5 4 0 1 0 0 0 0 0 2 62 22 9 107 63 36 117 36 33 55 12 5 24 1 13
33 29 35 26 12 14 19 16 30 28 11 42 5 18 19 2 6 3 2 2 0 0 0 0 0 1 0 0 0 0 0 0 25 1 0 31 42 4 5 36 2 3 3 8 6 32 35
27 28 27 29 24 14 8 11 18 11 12 41 6 16 16 1 3 0 2 0 0 0 0 0 0 0 0 0 0 0 0 0 4 8 5 0 2 1 34 9 0 0 0 2 19 43 17
12 7 8 16 27 26 16 13 8 18 21 1 11 9 15 0 1 6 0 0 0 0 0 0 0 0 0 0 0 0 0 0 0 0 0 0 1 6 2 61 25 19 39 62 46 46 12
14 14 10 10 11 18 30 23 12 8 7 12 33 14 20 0 2 0 0 0 0 0 0 0 0 0 0 0 0 0 0 0 0 0 0 0 5 1 19 53 40 10 28 30 30 43 30
8 7 6 9 4 5 9 35 20 14 13 25 36 19 21 5 0 0 0 0 0 0 0 0 0 0 0 0 0 0 0 0 0 0 0 0 2 11 8 11 4 41 0 11 66 18 97
69 54 39 37 12 2 6 11 29 13 23 20 40 20 31 19 0 0 0 0 0 0 0 0 0 0 2 0 0 0 0 0 0 0 0 0 1 11 3 2 0 28 0 0 16 0 13
80 73 81 115 53 20 8 4 14 34 26 53 41 20 43 32 0 0 0 0 0 0 0 0 0 0 3 1 12 0 2 0 0 0 2 33 7 2 16 17 3 0 4 11 10 7 1
104 96 112 80 82 85 22 46 23 48 47 92 56 27 33 2 0 0 0 0 0 1 0 0 0 0 0 23 5 2 1 0 0 0 8 13 15 12 25 32 0 1 0 0 0 0 0
113 200 192 80 259 226 115 123 90 88 51 77 47 32 35 6 0 0 0 0 0 0 0 0 0 0 1 6 5 25 0 0 0 1 11 0 1 14 4 6 2 21 0 0 0 0 0
211 339 386 76 272 202 130 146 155 82 42 70 79 23 20 0 0 0 0 0 0 0 0 0 0 0 0 2 16 4 0 0 0 0 0 1 24 0 23 13 1 0 0 0 0 0 0
295 345 379 315 273 201 191 165 86 76 43 100 6 27 10 0 0 0 0 0 0 0 0 0 0 0 0 0 4 1 0 0 0 0 0 0 1 3 1 0 0 0 0 0 0 0 0
327 260 263 214 153 150 171 125 63 42 67 70 11 19 10 0 0 0 0 0 0 0 0 0 0 0 0 0 0 0 0 0 0 0 0 0 0 0 0 0 0 0 0 0 0 0 0
264 245 126 104 134 78 69 70 47 90 67 85 23 2 2 0 0 0 0 0 0 0 0 0 0 0 0 0 3 10 0 0 0 0 0 0 0 0 0 0 0 0 0 0 0 0 0
196 157 106 130 137 60 50 90 47 57 61 23 17 12 0 5 0 0 0 0 0 0 0 0 0 0 0 0 3 2 0 0 0 0 0 0 0 0 0 0 0 0 0 0 0 0 0
233 94 78 106 109 83 70 82 52 88 75 4 4 1 8 22 0 0 0 0 2 0 0 0 0 0 0 0 0 0 0 0 0 0 0 0 0 0 0 0 0 0 0 0 0 0 0
149 101 43 51 114 64 67 31 27 42 65 0 0 1 0 2 9 0 0 0 0 0 0 0 0 0 0 0 0 0 0 0 0 0 0 0 0 0 0 0 0 0 0 0 0 0 0
130 65 36 34 62 70 13 6 29 24 70 0 0 0 0 0 0 0 1 0 0 0 0 0 0 0 0 0 0 0 0 0 0 0 0 0 0 0 0 0 0 0 0 0 0 0 0
69 42 29 28 51 21 6 15 53 73 7 0 0 0 0 1 0 0 0 0 0 0 0 0 0 0 0 0 0 0 0 0 0 0 0 0 0 0 0 0 0 0 0 0 0 0 0
61 36 26 45 54 21 17 22 20 76 0 0 0 0 0 1 0 0 0 0 0 0 0 0 0 0 0 0 0 0 0 0 0 0 0 0 0 0 0 0 0 0 0 0 0 0 0
27 17 29 43 23 21 27 32 27 10 0 0 0 0 0 0 0 0 0 0 0 0 0 0 0 0 0 0 0 0 0 0 0 0 0 0 0 0 0 0 0 0 0 0 0 0 0
9 13 21 8 9 29 36 40 51 22 0 0 0 0 0 0 0 0 0 0 0 0 0 0 0 0 0 0 0 0 0 0 0 0 0 0 0 0 0 0 0 0 0 0 0 0 0
6 8 7 2 16 7 40 18 24 0 0 0 0 0 0 0 0 0 0 0 0 0 0 0 0 0 0 0 0 0 0 0 0 0 0 0 0 0 0 0 0 0 0 0 0 0 0
4 2 2 12 9 4 41 18 34 0 0 0 0 0 0 0 0 0 0 0 0 0 0 0 0 0 0 0 0 0 0 0 0 0 0 0 0 0 0 4 0 0 0 0 0 0 0
1 3 19 8 4 13 14 17 32 0 0 0 0 0 0 0 0 0 0 0 0 0 0 0 0 0 0 0 0 0 0 0 0 0 0 0 0 0 0 0 0 0 0 0 0 0 0
CIN
-0 -0 -0 -0 -0 -1 -5 -111 -99 -15 -0 -0 -0 -0 -0 -0 -0 -0 -0 -0 -0 -0 -0 -0 -0 -0 -0 -0 -0 -0 -0 -6 -32 -3 -8 -3 -6 -16 -1 -6 -9 -1 -0 -35 -14 -84 -208
-0 -0 -0 -0 -0 -0 -0 -2 -44 -86 -5 -0 -0 -0 -0 -0 -0 -0 -0 -0 -0 -0 -0 -0 -0 -0 -0 -0 -0 -0 -0 -48 -16 -6 -0 -12 -5 -12 -10 -6 -7 -22 -5 -0 -17 -61 -151
-0 -0 -0 -0 -0 -0 -0 -3 -16 -73 -49 -0 -0 -0 -0 -0 -0 -0 -0 -0 -0 -0 -0 -0 -0 -1 -0 -0 -0 -0 -0 -25 -32 -1 -0 -2 -24 -2 -8 -5 -16 -33 -7 -6 -5 -11 -25
-0 -0 -0 -0 -0 -0 -0 -0 -0 -23 -84 -17 -0 -0 -0 -0 -0 -0 -0 -0 -0 -0 -0 -0 -0 -0 -0 -0 -0 -0 -0 -12 -11 -5 -0 -28 -23 -1 -1 -32 -10 -5 -23 -0 -5 -29 -3
-0 -0 -0 -0 -0 -0 -0 -0 -0 -0 -0 -33 -0 -0 -0 -0 -0 -0 -0 -0 -0 -0 -0 -0 -0 -13 -0 -0 -0 -0 -0 -18 -5 -4 -4 -7 -7 -0 -5 -14 -15 -4 -13 -0 -10 -24 -0
-0 -0 -0 -0 -0 -0 -0 -0 -0 -0 -0 -7 -0 -0 -0 -0 -0 -0 -0 -0 -0 -0 -0 -0 -0 -3 -0 -0 -0 -0 -0 -0 -4 -2 -0 -1 -0 -0 -9 -9 -0 -9 -0 -0 -0 -0 -0
-0 -0 -0 -0 -0 -0 -0 -0 -0 -0 -0 -0 -0 -0 -0 -1 -0 -0 -0 -0 -0 -0 -0 -0 -0 -0 -0 -0 -0 -0 -0 -0 -15 -5 -0 -0 -8 -0 -2 -20 -0 -0 -0 -0 -3 -0 -0
-0 -0 -0 -0 -0 -0 -0 -0 -0 -0 -0 -0 -0 -0 -0 -0 -0 -0 -0 -0 -0 -0 -0 -0 -0 -0 -0 -0 -0 -0 -0 -0 -0 -0 -0 -0 -0 -0 -18 -11 -24 -32 -29 -10 -6 -5 -3
-0 -0 -0 -0 -0 -0 -0 -0 -0 -0 -0 -0 -0 -0 -0 -0 -0 -0 -0 -0 -0 -0 -0 -0 -0 -0 -0 -0 -0 -0 -0 -0 -0 -0 -0 -0 -0 -0 -17 -5 -14 -28 -31 -25 -34 -0 -11
-0 -0 -0 -0 -0 -0 -0 -0 -0 -0 -0 -0 -0 -0 -0 -1 -0 -0 -0 -0 -0 -0 -0 -0 -0 -0 -0 -0 -0 -0 -0 -0 -0 -0 -0 -0 -0 -0 -0 -2 -20 -22 -7 -36 -35 -29 -0
-0 -0 -0 -6 -0 -0 -0 -0 -0 -0 -0 -0 -0 -0 -0 -0 -0 -0 -0 -0 -0 -0 -0 -0 -0 -0 -20 -0 -0 -0 -0 -0 -0 -0 -0 -1 -0 -3 -2 -0 -0 -23 -0 -5 -33 -0 -3
-0 -0 -0 -0 -0 -0 -0 -4 -0 -0 -0 -0 -0 -0 -0 -0 -0 -0 -0 -0 -0 -0 -0 -0 -0 -0 -5 -17 -0 -0 -63 -0 -0 -0 -9 -21 -10 -8 -3 -2 -12 -0 -3 -3 -0 -0 -0
-0 -0 -0 -0 -9 -33 -30 -47 -0 -0 -0 -0 -1 -0 -0 -2 -0 -0 -0 -0 -0 -0 -0 -0 -0 -0 -0 -0 -0 -3 -14 -0 -0 -0 -13 -7 -2 -12 -27 -56 -0 -0 -0 -0 -0 -0 -0
-0 -0 -0 -0 -0 -0 -0 -0 -0 -0 -0 -0 -0 -0 -0 -0 -0 -0 -0 -0 -0 -0 -0 -0 -0 -0 -19 -8 -14 -3 -0 -0 -0 -0 -1 -0 -0 -0 -9 -4 -0 -2 -0 -0 -0 -0 -0
-0 -0 -0 -0 -0 -0 -0 -0 -0 -0 -0 -0 -0 -0 -0 -1 -0 -0 -0 -0 -0 -0 -0 -0 -0 -0 -0 -9 -8 -3 -0 -0 -0 -0 -0 -13 -0 -1 -6 -3 -7 -6 -0 -0 -0 -0 -0
-0 -0 -0 -0 -0 -0 -0 -0 -0 -0 -8 -1 -1 -0 -0 -60 -0 -0 -0 -0 -0 -0 -0 -0 -0 -0 -0 -0 -7 -0 -0 -0 -0 -0 -0 -0 -6 -4 -3 -0 -0 -0 -0 -0 -0 -0 -0
-0 -0 -0 -0 -0 -1 -1 -0 -2 -5 -0 -0 -0 -0 -17 -0 -0 -5 -0 -0 -0 -0 -0 -0 -0 -0 -0 -0 -7 -0 -0 -0 -0 -0 -0 -0 -0 -0 -0 -0 -0 -0 -0 -0 -0 -0 -0
-0 -0 -0 -0 -1 -5 -0 -0 -0 -0 -0 -0 -1 -0 -20 -2 -5 -6 -0 -0 -0 -0 -0 -0 -0 -0 -0 -0 -9 -23 -0 -0 -0 -0 -0 -0 -0 -0 -0 -0 -0 -0 -0 -0 -0 -0 -0
-1 -0 -0 -1 -0 -0 -0 -0 -0 -0 -0 -3 -0 -0 -0 -0 -0 -0 -0 -0 -0 -0 -0 -0 -0 -0 -0 -0 -21 -27 -0 -0 -0 -0 -0 -0 -0 -0 -0 -0 -0 -0 -0 -0 -0 -0 -0
-0 -0 -0 -3 -5 -0 -0 -0 -14 -3 -0 -16 -0 -0 -0 -1 -0 -0 -0 -0 -5 -0 -0 -0 -0 -0 -0 -0 -0 -0 -0 -0 -0 -0 -0 -0 -0 -0 -0 -0 -0 -0 -0 -0 -0 -0 -0
-0 -0 -0 -0 -0 -0 -0 -0 -0 -0 -0 -0 -0 -0 -0 -0 -0 -0 -0 -0 -0 -0 -0 -0 -0 -0 -0 -2 -0 -0 -0 -0 -0 -0 -0 -0 -0 -0 -0 -0 -0 -0 -0 -0 -0 -0 -0
-0 -0 -0 -0 -2 -0 -0 -0 -0 -0 -0 -0 -0 -0 -0 -0 -0 -4 -1 -0 -0 -0 -0 -0 -0 -0 -0 -0 -0 -0 -0 -0 -0 -0 -0 -0 -0 -0 -0 -0 -0 -0 -0 -0 -0 -0 -0
-0 -0 -0 -0 -0 -0 -0 -0 -0 -0 -4 -0 -0 -0 -0 -1 -0 -0 -0 -0 -0 -0 -0 -0 -0 -0 -0 -0 -0 -0 -0 -0 -0 -0 -0 -0 -0 -0 -0 -0 -0 -0 -0 -0 -0 -0 -0
-0 -0 -0 -0 -0 -0 -0 -0 -3 -0 -0 -0 -0 -0 -0 -0 -0 -0 -0 -0 -0 -0 -0 -0 -0 -0 -0 -0 -0 -0 -0 -0 -0 -0 -0 -0 -0 -0 -0 -0 -0 -0 -0 -0 -0 -0 -0
-0 -0 -0 -0 -0 -0 -0 -0 -0 -1 -0 -0 -0 -0 -0 -0 -0 -0 -0 -0 -0 -0 -0 -0 -0 -0 -0 -0 -0 -0 -0 -0 -0 -0 -0 -0 -0 -0 -0 -0 -0 -0 -0 -0 -0 -0 -0
-0 -0 -0 -0 -0 -0 -0 -0 -0 -0 -0 -0 -0 -0 -0 -0 -0 -0 -0 -0 -0 -0 -0 -0 -0 -0 -0 -0 -0 -0 -0 -0 -0 -0 -0 -0 -0 -0 -7 -0 -0 -0 -0 -0 -0 -0 -0
-0 -0 -0 -0 -0 -0 -0 -2 -0 -0 -0 -0 -0 -0 -0 -0 -0 -0 -0 -0 -0 -0 -0 -0 -0 -0 -0 -0 -0 -0 -0 -0 -0 -0 -0 -8 -20 -2 -5 -1 -0 -0 -0 -0 -0 -0 -0
-0 -0 -0 -0 -0 -4 -0 -0 -0 -0 -0 -0 -0 -0 -0 -0 -0 -0 -0 -0 -0 -0 -0 -0 -0 -0 -0 -0 -0 -0 -0 -0 -0 -0 -0 -0 -0 -0 -0 -5 -0 -0 -0 -0 -0 -0 -0
-0 -0 -0 -0 -8 -16 -0 -0 -0 -0 -0 -0 -0 -0 -0 -0 -0 -0 -0 -0 -0 -0 -0 -0 -0 -0 -0 -0 -0 -0 -0 -0 -0 -0 -0 -0 -0 -0 -0 -0 -0 -0 -0 -0 -0 -0 -0
Wind_Speed
23 25 25 23 24 24 24 23 20 18 18 13 13 13 12 11 13 12 8 10 11 12 10 10 8 8 3 2 8 7 10 6 2 6 7 6 6 6 7 5 6 12 12 9 9 5 5
22 23 24 25 24 24 25 24 24 18 18 15 11 15 12 11 12 11 10 9 12 11 8 9 7 4 2 6 5 5 4 3 7 8 9 4 5 5 5 5 13 4 11 19 8 11 6
21 22 23 24 26 26 26 27 24 27 17 16 12 14 12 12 13 10 11 9 9 10 9 9 7 1 4 12 4 6 5 4 12 10 7 7 5 6 2 3 4 7 14 8 8 6 4
23 23 24 24 25 26 26 25 27 24 19 15 12 13 11 11 11 13 10 9 8 8 8 9 4 3 6 6 5 6 6 2 8 9 5 7 6 5 5 3 3 7 3 9 3 7 2
22 22 23 24 25 25 26 25 25 27 28 16 13 12 10 10 11 12 10 9 6 7 8 6 1 2 8 7 3 7 3 5 8 6 4 4 5 4 4 4 4 3 4 3 4 10 4
23 23 23 24 25 26 27 27 27 27 32 20 13 12 10 8 10 12 10 9 3 3 5 3 2 2 4 5 5 6 5 3 3 8 8 4 4 1 2 2 6 6 5 6 4 8 10
25 25 25 24 24 26 26 28 27 28 27 29 14 12 9 7 9 9 5 0 4 1 2 5 2 3 2 7 3 4 4 6 2 1 5 3 4 1 6 2 2 7 10 5 6 12 10
26 26 26 26 26 25 26 26 27 29 27 25 15 12 10 7 8 6 2 4 4 3 4 6 4 2 1 2 3 6 6 5 4 2 4 6 4 4 4 2 4 7 9 3 6 12 5
28 28 28 28 28 26 24 25 27 26 28 25 19 13 10 6 6 2 4 4 4 5 0 3 2 2 2 0 1 4 5 4 4 5 2 6 2 7 2 3 4 2 7 5 6 8 3
31 31 30 29 30 28 26 25 25 27 24 26 23 14 12 8 2 3 4 4 5 4 5 3 2 2 2 3 2 1 2 1 4 1 5 4 5 2 7 0 3 5 2 5 16 7 2
28 29 30 32 30 30 29 27 25 27 24 26 24 14 14 14 2 3 5 6 6 5 4 3 2 2 2 3 2 2 2 3 1 2 1 1 3 4 4 1 3 4 4 3 8 7 2
30 30 30 28 28 28 31 30 26 25 26 23 23 16 15 8 1 3 5 6 5 5 8 3 3 3 3 3 2 1 1 3 1 2 2 3 1 1 1 3 5 5 8 11 7 2 1
31 31 31 29 29 27 26 28 27 25 25 21 28 18 12 4 4 7 5 3 7 3 1 4 4 3 2 3 3 3 3 1 2 3 2 4 2 5 2 5 7 3 2 3 2 2 2
32 32 33 31 29 29 27 27 27 26 25 19 29 17 11 7 5 7 2 5 4 4 6 2 4 3 3 5 1 3 4 1 3 1 3 3 2 3 2 3 3 4 1 4 4 2 3
32 32 30 20 29 27 25 22 29 24 26 19 14 5 2 3 6 3 2 5 7 7 6 6 3 3 3 3 2 1 2 3 5 7 3 4 1 3 1 0 1 4 3 0 6 3 4
32 32 30 26 25 26 25 21 25 26 24 12 3 4 4 6 4 3 2 5 4 5 4 3 5 5 5 5 2 4 2 4 3 7 2 2 4 2 2 2 3 1 1 4 4 3 2
33 30 26 25 26 26 25 25 26 27 30 21 6 4 4 7 3 1 4 5 3 6 5 6 6 4 5 6 5 4 4 3 2 5 6 3 3 2 2 4 2 4 3 5 3 3 4
30 29 25 26 25 24 24 26 34 36 37 21 6 4 7 7 4 3 4 6 2 5 3 4 4 4 6 6 4 4 5 4 3 3 5 4 5 3 2 1 0 0 2 3 5 3 2
29 28 26 26 23 24 26 26 32 30 18 8 8 3 1 2 5 4 2 2 3 5 5 4 4 4 2 5 5 2 2 3 2 2 2 2 3 4 7 5 3 2 3 3 5 3 2
27 25 25 23 22 22 25 27 30 10 32 8 5 6 3 2 2 5 6 4 6 5 4 3 4 2 3 4 4 4 2 2 3 2 6 5 3 4 7 4 4 3 4 4 5 4 3
25 22 24 23 23 23 26 28 35 28 29 5 3 4 5 9 10 4 6 2 11 5 1 5 1 3 5 5 4 3 2 2 4 4 3 4 3 3 3 3 3 1 1 5 4 4 6
23 20 22 23 24 23 27 27 14 42 22 3 6 5 2 2 13 8 5 4 11 3 5 4 5 3 3 5 5 7 6 3 4 3 3 3 0 1 4 5 6 3 2 1 3 3 5
20 19 21 22 24 25 28 26 23 31 8 3 2 2 5 6 8 12 6 4 7 7 3 3 6 5 4 4 5 5 2 4 5 6 3 3 5 3 2 4 4 5 5 4 3 3 4
20 18 20 21 20 25 29 30 39 32 9 2 2 2 4 4 7 11 8 6 8 4 7 3 4 5 3 4 5 4 8 8 7 6 2 5 3 3 1 3 2 6 1 2 4 3 4
19 19 20 22 24 29 29 23 36 21 11 3 2 1 4 5 3 5 9 5 7 6 5 4 4 1 4 3 5 5 5 4 5 6 5 2 5 4 3 2 5 2 2 4 4 1 1
17 19 22 24 24 27 18 28 31 18 12 4 0 2 3 7 2 3 5 6 6 4 4 3 3 1 4 4 4 4 4 3 1 2 5 5 5 3 2 1 4 5 2 1 2 4 2
18 22 24 25 26 25 24 28 28 17 6 3 3 4 5 7 4 4 3 5 4 5 5 2 1 3 3 3 3 3 3 4 4 5 4 3 3 3 2 3 7 6 3 0 3 5 3
20 24 27 28 26 21 26 28 25 17 6 5 0 4 5 5 4 4 4 4 3 3 6 3 4 2 3 4 3 3 3 5 4 4 5 5 5 3 2 1 7 0 3 3 4 2 3
22 25 28 24 6 18 26 26 24 14 8 8 4 3 5 8 4 1 3 3 3 1 6 3 2 2 3 5 1 3 2 1 4 3 1 2 6 6 8 6 2 3 1 3 2 2 2
Wind_Direction
348 343 340 340 339 339 344 329 293 246 254 255 265 273 277 285 295 296 300 304 297 286 308 318 315 344 27 350 255 259 287 246 83 13 307 236 237 213 206 209 244 219 192 248 148 105 36
340 337 336 338 336 336 335 335 336 287 250 250 254 265 269 277 284 291 297 302 298 291 309 307 315 21 97 278 243 265 266 131 330 291 256 228 257 218 237 238 190 234 199 244 146 80 57
340 340 337 335 333 337 335 333 330 338 246 248 240 258 266 276 284 288 294 289 292 298 305 297 312 77 272 255 251 301 306 175 283 240 205 241 212 255 230 226 178 249 215 314 218 116 58
334 335 333 333 332 333 332 335 329 334 285 241 237 251 263 272 282 286 295 289 294 303 292 284 299 98 254 249 251 308 308 234 335 151 203 273 200 310 254 303 129 139 144 171 214 151 57
328 330 331 331 332 332 334 333 331 325 332 232 230 240 251 266 279 287 289 282 283 292 273 281 103 137 270 295 334 307 309 328 54 85 237 329 179 244 229 162 86 156 108 170 301 185 76
327 327 327 328 329 331 333 331 329 336 336 293 216 231 239 256 271 288 278 283 271 311 283 219 196 321 272 300 302 315 305 321 123 71 359 331 189 179 176 146 176 141 159 127 253 119 121
326 326 328 328 327 326 328 327 329 327 340 331 212 219 224 235 266 276 281 68 60 4 252 211 223 242 312 299 270 337 341 341 113 210 202 259 88 353 38 33 239 141 123 124 125 134 152
322 324 325 324 324 323 324 323 327 327 324 314 228 201 208 223 266 266 241 192 156 153 290 230 253 244 265 250 9 343 3 29 31 349 338 24 32 29 321 12 113 144 135 147 136 131 96
320 318 320 319 319 318 318 320 321 320 331 326 284 198 192 213 243 209 242 198 133 115 139 284 210 236 223 219 108 310 15 358 8 18 358 108 317 315 193 7 136 94 142 158 120 145 50
316 315 315 315 315 316 316 318 321 318 324 317 309 199 176 183 179 178 235 186 131 107 63 249 242 228 140 163 37 352 15 101 8 1 329 65 336 255 121 329 336 93 66 71 136 113 154
304 305 307 311 314 315 314 314 318 314 320 313 324 201 180 179 148 200 191 146 120 65 24 206 179 119 183 105 189 351 325 12 112 287 334 45 344 121 122 262 281 90 27 116 125 90 138
303 301 298 297 296 302 306 310 314 309 314 305 331 204 185 201 235 247 154 131 76 39 263 175 126 204 212 137 52 24 34 52 223 310 289 114 236 5 20 118 101 25 103 81 82 91 110
302 298 294 295 293 292 294 296 305 302 306 308 323 198 179 183 209 163 174 85 62 184 313 218 205 174 236 113 157 219 177 60 107 89 7 69 343 328 338 109 68 330 228 99 98 123 213
298 292 290 300 286 287 292 300 298 296 303 306 313 182 194 221 170 148 173 68 126 216 197 200 144 131 145 137 17 212 135 169 223 225 92 111 279 270 5 10 150 227 156 139 124 147 182
300 292 295 285 275 282 288 286 288 293 293 298 259 163 205 224 177 121 106 92 200 210 184 156 91 146 191 116 168 202 195 206 200 197 129 132 59 306 198 138 189 263 48 50 106 10 65
301 298 294 295 287 286 285 284 285 288 281 263 197 194 191 165 177 97 70 170 208 213 156 118 162 177 153 155 152 187 208 224 172 188 233 191 93 337 272 168 205 128 166 41 15 115 216
300 301 297 291 288 286 282 276 286 290 273 271 190 177 154 168 127 204 195 174 246 241 166 157 194 163 171 155 151 186 225 278 196 166 170 141 89 299 357 12 80 34 354 46 101 95 145
302 296 293 293 295 293 291 289 281 274 258 240 158 178 160 157 152 200 196 153 236 196 176 203 147 200 152 149 152 194 194 243 212 169 147 179 119 104 170 235 315 42 193 129 113 248 55
300 297 298 298 297 299 296 289 291 284 176 138 143 142 57 218 172 199 113 70 230 168 171 176 187 206 149 143 102 76 145 331 249 66 137 183 21 72 356 8 349 195 187 102 99 84 239
301 300 300 301 296 296 294 298 293 237 168 123 139 136 136 211 258 166 127 192 198 183 152 169 184 151 120 104 65 162 124 5 4 79 70 92 100 150 180 189 149 175 183 134 112 96 177
299 302 303 303 301 311 310 314 325 154 161 101 124 162 179 174 194 179 135 167 178 152 181 190 94 173 151 121 102 105 56 23 19 358 67 91 107 79 32 93 116 134 193 175 156 161 140
305 307 309 306 313 314 317 320 329 153 151 92 137 161 109 105 154 160 143 216 177 146 131 196 155 173 157 132 148 177 136 155 195 19 63 35 111 77 24 7 28 353 314 146 200 178 253
306 316 306 309 312 325 310 302 171 179 103 103 192 281 107 129 144 167 181 195 181 129 56 133 149 105 83 130 115 111 118 130 154 144 122 91 134 85 247 350 337 319 245 204 189 201 182
312 310 305 308 314 306 299 297 173 175 99 112 233 123 108 133 159 179 161 205 152 138 133 32 72 105 173 110 109 61 52 70 68 36 115 124 101 88 170 10 20 241 228 191 191 248 236
313 314 313 317 324 307 307 165 159 111 99 93 340 140 118 109 132 189 155 138 86 61 68 77 19 332 125 72 69 51 359 26 33 37 19 78 114 102 113 173 278 293 185 181 176 196 258
319 318 320 324 315 314 158 154 168 120 104 90 228 287 97 124 16 334 112 140 126 107 39 49 18 26 68 81 82 130 173 193 253 35 35 71 87 94 126 161 217 240 242 19 66 274 235
331 325 322 318 314 317 161 164 165 120 114 134 48 344 81 98 3 352 116 140 113 91 97 113 175 58 38 81 92 138 200 171 162 166 179 100 58 138 182 237 284 239 220 143 128 243 136
332 325 319 311 303 293 170 155 158 120 108 87 247 357 101 92 25 355 17 85 76 85 132 185 81 352 52 78 127 190 144 210 113 171 178 157 142 186 123 238 273 303 63 173 227 59 122
327 324 318 307 164 125 141 145 149 129 92 84 70 352 45 77 134 354 96 71 29 43 124 38 144 121 164 94 81 123 129 111 158 204 73 184 176 181 176 213 276 353 104 27 63 90 36